TimeEDT,TemperatureF,Dew PointF,Humidity,Sea Level PressureIn,VisibilityMPH,Wind Direction,Wind SpeedMPH,Gust SpeedMPH,PrecipitationIn,Events,Conditions,WindDirDegrees,DateUTC
12:15 AM,77.0,71.6,83,29.83,10.0,SW,3.5,-,0.00,,Clear,220,2013-09-14 04:15:00
12:35 AM,78.8,71.6,78,29.83,10.0,SW,5.8,-,0.00,,Clear,230,2013-09-14 04:35:00
12:55 AM,78.8,71.6,78,29.82,10.0,SW,4.6,-,0.00,,Clear,230,2013-09-14 04:55:00
1:15 AM,78.8,71.6,78,29.82,10.0,West,3.5,-,0.00,,Clear,260,2013-09-14 05:15:00
1:35 AM,78.8,71.6,78,29.82,10.0,West,3.5,-,0.00,,Clear,270,2013-09-14 05:35:00
1:55 AM,77.0,71.6,83,29.82,10.0,WNW,3.5,-,0.00,,Clear,290,2013-09-14 05:55:00
2:15 AM,77.0,71.6,83,29.81,10.0,West,4.6,-,0.00,,Clear,260,2013-09-14 06:15:00
2:35 AM,75.2,71.6,89,29.81,10.0,West,3.5,-,0.00,,Clear,280,2013-09-14 06:35:00
2:55 AM,75.2,71.6,89,29.81,10.0,Calm,Calm,-,0.00,,Clear,0,2013-09-14 06:55:00
3:15 AM,75.2,71.6,89,29.80,10.0,West,3.5,-,0.00,,Clear,280,2013-09-14 07:15:00
3:35 AM,75.2,71.6,89,29.81,10.0,Calm,Calm,-,0.00,,Clear,0,2013-09-14 07:35:00
3:55 AM,75.2,71.6,89,29.82,10.0,Calm,Calm,-,0.00,,Clear,0,2013-09-14 07:55:00
4:15 AM,73.4,71.6,94,29.83,7.0,North,5.8,-,0.00,,Partly Cloudy,350,2013-09-14 08:15:00
4:35 AM,77.0,73.4,89,29.83,10.0,North,10.4,-,0.00,,Clear,360,2013-09-14 08:35:00
4:55 AM,77.0,71.6,83,29.84,10.0,North,6.9,16.1,0.00,,Clear,10,2013-09-14 08:55:00
5:15 AM,77.0,66.2,69,29.84,10.0,NNE,10.4,17.3,0.00,,Clear,20,2013-09-14 09:15:00
5:35 AM,75.2,64.4,69,29.85,10.0,North,9.2,-,0.00,,Clear,360,2013-09-14 09:35:00
5:55 AM,75.2,64.4,69,29.85,10.0,North,9.2,-,0.00,,Clear,360,2013-09-14 09:55:00
6:15 AM,75.2,62.6,65,29.86,10.0,North,11.5,-,0.00,,Clear,360,2013-09-14 10:15:00
6:35 AM,73.4,62.6,69,29.86,10.0,North,9.2,-,0.00,,Clear,10,2013-09-14 10:35:00
6:50 AM,73.4,60.8,65,29.87,10.0,NNE,6.9,-,N/A,,Overcast,20,2013-09-14 10:50:00
7:50 AM,73.4,60.8,65,29.90,10.0,NNE,6.9,-,N/A,,Clear,20,2013-09-14 11:50:00
8:50 AM,73.4,62.6,69,29.91,10.0,North,6.9,-,N/A,,Clear,360,2013-09-14 12:50:00
9:47 AM,73.4,64.4,73,29.93,10.0,North,12.7,-,N/A,,Partly Cloudy,360,2013-09-14 13:47:00
10:50 AM,75.2,66.2,73,29.95,10.0,North,8.1,-,N/A,,Clear,360,2013-09-14 14:50:00
11:47 AM,78.8,69.8,74,29.95,10.0,North,11.5,-,N/A,,Clear,350,2013-09-14 15:47:00
12:50 PM,80.6,69.8,70,29.95,10.0,NNE,9.2,-,N/A,,Clear,20,2013-09-14 16:50:00
1:47 PM,82.4,71.6,70,29.95,10.0,NE,6.9,-,N/A,,Partly Cloudy,50,2013-09-14 17:47:00
2:50 PM,82.4,71.6,70,29.95,10.0,NE,9.2,-,N/A,,Partly Cloudy,50,2013-09-14 18:50:00
3:50 PM,84.2,73.4,70,29.94,10.0,ENE,8.1,-,N/A,,Partly Cloudy,60,2013-09-14 19:50:00
4:50 PM,82.4,73.4,74,29.94,10.0,East,8.1,-,N/A,,Scattered Clouds,80,2013-09-14 20:50:00
5:50 PM,80.6,73.4,79,29.95,10.0,NE,9.2,18.4,N/A,,Scattered Clouds,50,2013-09-14 21:50:00
6:50 PM,78.8,71.6,78,29.97,10.0,NE,8.1,-,N/A,,Scattered Clouds,40,2013-09-14 22:50:00
7:50 PM,78.8,71.6,78,29.99,10.0,NE,9.2,-,N/A,,Scattered Clouds,40,2013-09-14 23:50:00
9:15 PM,80.6,73.4,79,30.03,10.0,NNE,10.4,18.4,0.00,,Mostly Cloudy,30,2013-09-15 01:15:00
9:35 PM,80.6,73.4,79,30.04,10.0,NNE,9.2,-,0.00,,Mostly Cloudy,30,2013-09-15 01:35:00
9:55 PM,78.8,73.4,83,30.04,10.0,NNE,10.4,17.3,0.00,,Overcast,20,2013-09-15 01:55:00
10:15 PM,80.6,73.4,79,30.04,10.0,NNE,9.2,16.1,0.00,,Mostly Cloudy,20,2013-09-15 02:15:00
10:35 PM,80.6,73.4,79,30.04,10.0,NNE,10.4,17.3,0.00,,Mostly Cloudy,30,2013-09-15 02:35:00
10:55 PM,80.6,73.4,79,30.04,10.0,NNE,11.5,20.7,0.00,,Mostly Cloudy,20,2013-09-15 02:55:00
11:15 PM,80.6,73.4,79,30.05,10.0,NE,9.2,18.4,0.00,,Overcast,40,2013-09-15 03:15:00
11:35 PM,80.6,73.4,79,30.05,10.0,NE,8.1,17.3,0.00,,Mostly Cloudy,40,2013-09-15 03:35:00
11:55 PM,80.6,73.4,79,30.05,10.0,NE,12.7,16.1,0.00,,Scattered Clouds,40,2013-09-15 03:55:00